RH
59 64 65 68 75 78 82 82 80 79 79 78 77 80 80 79 79 78 79 81 79 78 76 74 75 77 81 82 80 81 83 83 82 80 79 79 81 82 84 84 82 82 83 84 86 85 83 86 88 87 86 86 86 85 84 84 83 84 81 77 74 70 70 74 77 73 60 50 49 51 61 71 73 75 72 67 65 64 64 63 63 65 66 63 61
61 63 65 69 77 82 83 84 84 82 81 80 80 81 80 79 78 78 81 84 79 74 73 74 74 75 77 77 75 77 80 80 79 80 80 81 83 84 85 84 82 82 83 84 85 83 84 86 86 86 88 87 87 88 88 87 87 86 80 73 71 70 70 75 79 72 59 55 55 48 51 66 73 73 72 69 66 63 64 66 66 68 68 63 59
64 62 66 73 80 85 84 84 83 82 82 81 80 81 80 79 78 79 83 85 81 76 74 73 75 78 77 76 76 75 79 80 78 79 82 84 86 87 87 85 82 82 82 83 85 85 86 86 84 88 91 88 87 88 88 88 88 86 79 72 69 67 67 75 81 75 66 63 57 48 44 50 61 66 63 63 66 66 65 67 68 66 67 67 64
64 61 66 74 79 84 84 83 83 81 81 81 81 83 81 81 82 81 82 83 80 79 76 74 79 83 81 81 82 80 82 84 82 83 86 88 89 87 86 84 82 82 81 83 86 86 86 85 84 89 90 87 86 87 85 85 84 81 77 74 71 66 64 73 83 79 73 68 57 50 46 43 49 53 51 57 64 64 62 66 69 65 67 71 67
60 62 65 69 75 82 83 82 83 80 80 82 81 83 86 87 86 82 82 82 80 80 79 77 81 84 83 84 86 86 87 87 85 87 90 90 89 87 85 83 83 83 83 84 86 87 86 84 84 86 85 84 83 81 80 79 77 76 76 74 75 73 66 68 78 79 77 75 66 57 52 46 48 50 52 57 59 58 57 62 68 66 67 68 65
53 59 62 64 69 77 79 79 80 79 81 84 83 88 89 83 81 85 87 85 81 82 83 83 82 79 77 78 81 84 85 83 83 87 90 88 88 88 85 84 84 85 86 86 87 86 85 84 84 83 82 82 81 78 77 77 75 76 76 73 73 76 71 64 67 74 75 75 71 67 63 59 58 55 52 51 51 56 57 59 64 62 63 64 59
52 57 60 62 65 70 74 77 78 78 82 87 88 90 81 71 78 89 91 89 86 87 89 90 84 78 79 81 82 82 81 83 86 90 92 90 89 89 86 86 89 90 90 87 87 86 85 86 85 83 83 82 81 79 78 78 77 78 78 75 73 74 74 65 61 65 68 68 70 71 70 67 67 64 56 49 47 51 54 59 62 58 60 61 54
52 58 60 61 63 66 69 74 78 78 84 91 91 87 76 74 86 93 92 92 90 89 93 92 83 80 86 87 84 84 84 88 92 94 95 91 91 91 86 87 93 94 92 90 90 87 85 87 86 83 82 80 79 79 79 79 79 79 80 79 77 77 76 69 65 65 64 65 67 68 68 66 67 69 67 60 51 47 47 51 55 53 56 59 54
47 53 57 59 62 64 65 71 76 78 87 94 93 88 79 83 94 97 97 96 91 92 95 92 86 85 85 79 81 88 90 91 92 94 96 92 92 91 84 88 95 95 94 93 90 87 85 85 84 83 81 78 74 76 78 79 79 81 81 82 81 80 78 72 70 70 68 69 68 66 65 62 62 66 66 63 56 50 44 44 49 47 47 56 58
45 48 53 57 62 64 63 68 73 81 92 95 94 92 85 87 95 96 96 95 93 95 95 92 91 90 84 79 83 91 92 92 92 95 97 93 90 90 89 92 97 97 97 94 89 86 85 84 83 83 83 79 75 76 79 79 80 82 83 85 83 79 78 76 76 75 73 73 71 66 63 60 58 59 59 59 58 53 48 45 45 41 41 52 58
46 46 50 57 62 64 64 68 73 84 95 95 97 97 89 89 91 89 89 91 95 97 94 93 91 88 86 86 87 89 90 92 94 96 97 93 88 91 95 95 96 97 95 92 89 87 85 85 85 85 84 81 78 78 78 77 79 83 84 84 82 79 78 80 81 78 74 74 73 68 65 64 62 60 59 59 56 53 51 46 41 40 42 45 51
46 47 51 57 62 63 64 67 73 85 94 95 100 99 92 90 88 89 91 90 95 98 93 93 93 86 86 90 91 92 93 92 95 98 97 90 86 92 97 95 97 97 92 89 85 81 81 83 84 84 82 79 77 77 75 75 79 82 81 79 79 79 80 79 80 78 74 71 71 70 68 68 67 65 64 62 58 56 54 48 42 44 45 41 45
44 48 53 58 61 63 63 66 74 85 91 96 101 99 95 91 86 89 94 92 95 97 93 96 94 85 88 96 93 91 93 92 94 96 93 88 88 94 97 95 95 91 87 87 83 80 84 85 83 82 80 79 77 76 76 77 79 78 78 78 79 80 80 80 80 82 79 73 70 70 68 68 69 70 68 65 63 60 55 51 47 47 48 43 41
47 50 54 58 61 63 63 66 73 82 90 97 100 96 92 87 82 85 93 97 97 97 97 95 90 87 94 99 91 87 93 95 94 93 93 94 94 95 96 92 88 82 81 87 86 86 91 88 82 80 79 79 77 77 78 77 75 75 78 80 80 80 80 81 82 83 82 78 73 71 71 71 72 72 70 66 64 61 57 55 52 48 46 42 38
51 51 53 56 59 63 63 66 73 79 86 93 94 92 89 84 82 84 91 100 99 99 100 90 83 91 99 97 90 88 91 95 96 94 95 99 96 96 97 89 83 81 80 82 83 84 88 85 81 79 78 78 77 79 79 76 76 77 79 81 80 79 79 78 79 81 83 82 78 74 73 74 73 71 69 66 65 62 58 59 56 50 46 41 37
51 52 52 54 58 61 62 67 75 79 83 86 86 89 88 83 84 87 92 99 99 99 100 87 80 90 95 91 88 87 90 95 98 97 97 98 96 94 93 87 84 81 78 78 75 76 83 82 80 79 77 75 77 79 77 75 78 80 79 80 79 77 76 75 76 79 82 83 81 77 73 72 72 71 68 67 65 61 59 59 56 52 50 44 38
52 53 52 53 57 60 62 68 75 78 81 81 81 85 86 83 85 91 96 98 98 99 99 89 84 90 92 90 88 89 94 97 96 96 97 98 97 92 87 86 85 80 78 76 71 75 82 81 80 80 77 77 77 76 74 75 79 80 79 78 76 74 75 76 76 77 79 81 80 76 71 69 70 68 67 69 67 62 60 59 55 55 55 50 43
52 51 51 53 56 59 61 66 71 75 79 79 80 84 87 86 88 93 96 96 97 100 99 94 90 92 93 93 91 92 96 97 93 96 99 100 99 91 85 86 84 79 78 72 69 79 84 80 81 79 76 77 76 74 75 76 79 80 78 75 73 73 74 76 77 77 76 77 76 72 67 66 67 66 65 65 65 62 59 58 56 56 57 56 51
53 51 52 55 57 58 60 65 70 73 77 79 82 86 89 90 90 91 95 96 97 98 98 97 92 92 97 97 94 94 96 97 95 98 100 100 97 90 84 85 81 78 75 69 73 85 83 77 80 77 74 76 76 75 74 76 78 78 74 71 71 71 71 73 75 74 72 71 70 67 63 62 62 61 60 61 62 62 58 56 55 55 59 62 60
55 52 55 56 57 59 60 65 70 73 78 82 86 89 89 91 92 92 95 97 97 96 97 97 90 90 97 97 96 96 97 99 99 99 101 97 92 87 83 82 78 75 74 74 83 89 81 75 75 74 74 75 76 75 73 75 78 74 69 67 67 68 68 70 71 69 65 62 61 61 61 60 58 56 57 58 60 60 57 56 54 53 58 64 63
56 54 56 57 56 59 63 68 72 76 82 86 89 90 90 92 94 95 96 98 97 94 93 94 91 89 93 95 96 98 99 100 98 100 101 95 88 84 82 80 77 75 78 84 88 86 79 75 72 69 71 74 75 74 72 75 75 71 67 66 65 64 64 66 66 63 60 58 57 56 58 59 58 56 55 55 56 57 55 54 54 54 59 63 62
56 55 56 57 57 59 64 70 74 79 86 88 89 91 91 93 95 96 97 97 98 95 92 92 92 93 97 97 98 99 99 99 100 101 98 90 84 81 80 79 76 77 84 88 87 83 78 73 68 67 69 71 73 73 74 75 72 68 67 66 64 62 61 63 62 60 60 59 58 57 58 61 62 60 57 56 57 56 54 54 55 58 62 63 63
54 54 55 56 58 62 67 72 78 84 89 90 90 91 92 93 95 97 98 98 98 96 93 92 93 97 100 98 97 99 100 99 101 98 93 88 84 81 80 78 77 81 87 87 85 82 77 70 65 66 69 70 71 73 75 72 67 64 65 65 64 62 60 59 58 58 58 59 59 59 62 64 64 61 57 57 58 55 52 54 56 61 66 66 65
54 54 55 58 63 67 71 75 81 86 89 90 89 90 93 94 95 96 96 98 98 94 91 94 98 99 100 98 98 100 100 100 100 97 95 94 86 81 83 81 81 86 88 86 84 80 74 68 65 64 68 70 71 74 72 66 62 61 62 62 61 60 59 58 57 58 58 59 59 60 61 61 60 59 56 54 57 55 53 57 58 58 63 66 64
55 56 59 65 69 72 74 77 81 85 88 89 87 91 95 96 97 96 95 97 98 95 94 98 101 100 99 100 100 100 99 99 101 98 94 89 82 84 88 85 83 86 85 84 82 76 71 70 66 66 69 72 73 72 67 62 60 60 59 59 59 59 60 59 60 60 59 59 60 59 59 58 58 59 57 56 60 59 58 61 61 58 60 64 63
59 61 66 71 71 73 76 78 79 82 86 88 89 93 95 96 99 98 96 96 97 96 95 96 97 98 100 100 100 99 99 99 98 92 85 81 83 88 88 85 83 83 84 83 77 71 70 71 71 71 71 71 70 67 61 59 59 59 59 59 59 59 59 60 61 61 60 59 59 58 58 58 59 59 58 61 64 62 60 62 62 60 61 61 61
63 67 71 74 74 75 78 80 79 81 87 89 92 94 94 96 100 99 98 97 94 91 91 92 94 97 99 100 100 99 100 99 92 83 81 83 86 85 83 85 86 85 85 82 74 69 70 71 71 70 69 68 66 62 57 56 57 57 59 60 60 61 60 60 61 60 61 61 60 58 58 60 60 58 57 61 64 60 56 57 61 62 62 61 59
64 71 74 75 76 76 78 81 83 86 91 91 91 93 93 95 98 98 98 96 91 88 91 96 99 99 99 101 100 99 100 96 87 82 84 85 84 82 82 87 88 86 84 78 72 71 71 71 70 69 69 67 62 58 55 55 55 55 57 58 59 60 59 59 59 61 62 61 59 57 57 58 56 54 53 53 55 57 56 56 60 63 63 62 59
65 72 74 73 74 76 79 82 85 89 91 91 91 93 94 93 94 96 95 90 87 88 92 97 99 99 100 100 99 100 98 90 84 85 83 81 84 86 86 88 88 85 80 72 70 72 72 71 70 69 67 64 59 57 56 54 54 54 55 55 55 56 56 55 56 57 57 57 57 58 57 54 50 49 49 44 42 49 56 59 63 66 65 64 61
65 70 72 71 71 75 80 83 87 90 90 90 91 93 94 92 90 92 90 85 86 88 89 92 94 96 99 100 100 99 96 89 85 84 80 79 86 89 88 89 87 81 76 71 70 73 71 68 68 67 67 66 64 62 58 55 54 54 54 54 53 53 53 53 52 52 53 54 55 56 55 52 50 49 47 42 40 46 54 55 58 62 63 64 65
66 69 71 71 72 77 82 84 87 90 89 89 90 90 92 92 89 89 86 84 87 89 86 87 91 94 97 98 97 95 92 89 86 83 81 83 87 87 87 89 85 78 75 73 72 71 68 66 65 65 66 66 63 58 54 54 55 54 54 54 53 52 52 51 49 49 51 52 54 57 58 59 60 57 50 44 43 49 55 53 52 54 56 59 63
70 73 72 73 76 81 84 85 86 88 88 88 87 86 88 91 91 89 87 86 87 86 83 84 89 92 93 94 94 92 91 90 88 86 85 86 86 87 87 87 82 77 74 74 73 70 67 64 62 61 60 57 49 43 44 51 55 54 53 52 51 51 51 48 46 45 48 50 53 55 56 57 59 58 55 51 50 54 59 59 56 53 51 51 54
75 77 74 74 78 82 85 85 85 87 87 86 85 84 85 89 91 90 89 88 87 84 81 84 87 88 89 90 89 89 90 89 88 88 87 86 86 87 85 82 79 77 73 73 74 69 64 61 59 57 57 52 44 37 39 47 53 52 49 48 49 49 47 46 46 46 46 46 49 51 52 53 55 55 54 52 51 54 59 61 61 59 56 55 53
73 76 75 76 78 81 85 86 87 87 86 84 83 84 86 88 90 90 89 86 83 82 83 85 85 84 86 87 86 87 89 88 87 88 87 87 87 86 84 80 78 76 73 73 73 67 61 59 57 55 55 52 46 40 38 43 49 50 48 48 50 48 47 47 47 47 48 47 47 47 47 48 49 51 55 55 50 50 56 59 60 61 61 63 64
68 73 79 81 80 83 87 88 89 88 87 86 87 90 92 90 88 87 86 83 81 83 84 84 83 83 85 88 87 87 88 87 88 88 86 87 88 86 82 79 75 73 73 73 70 64 60 59 57 55 56 54 46 40 39 39 43 50 50 49 51 49 47 47 47 48 50 48 47 47 45 46 44 42 49 55 51 47 51 55 56 58 60 62 62
67 70 78 82 82 86 89 89 89 90 90 91 93 96 95 90 86 84 83 83 83 84 85 84 83 84 87 88 87 86 86 86 85 83 83 85 86 81 77 75 72 71 71 70 66 62 59 59 58 57 58 54 44 40 40 37 38 47 49 47 48 46 45 47 47 48 49 48 48 45 41 43 44 35 35 46 50 46 47 51 51 51 55 59 58
70 68 75 83 86 90 91 91 92 91 92 94 95 94 91 87 84 83 82 83 83 83 84 84 84 86 86 87 86 83 83 83 79 78 80 80 78 75 73 72 70 69 69 68 64 60 58 58 59 58 57 54 45 40 40 37 38 46 47 44 44 43 44 49 49 47 48 50 51 49 42 41 41 32 29 39 47 45 45 48 47 45 48 53 57
73 75 80 86 89 91 92 92 94 93 93 95 95 92 88 82 80 80 81 81 80 80 82 81 82 84 84 84 82 79 79 78 75 76 78 76 73 73 74 72 69 68 68 66 61 57 57 57 58 57 56 55 48 41 38 38 41 47 47 42 40 40 42 47 48 44 42 43 45 46 45 43 39 29 25 34 45 47 47 47 45 42 43 47 52
72 80 84 86 88 91 92 91 93 95 95 94 94 92 86 80 77 78 80 80 78 78 78 78 79 81 80 80 78 75 75 73 70 74 79 76 73 73 74 72 70 69 67 61 56 55 55 56 57 57 57 56 50 41 37 38 42 47 46 38 36 39 40 41 42 41 40 40 38 37 37 37 35 30 25 28 37 46 50 47 42 40 38 42 51
70 80 85 86 86 89 89 89 91 94 94 92 92 93 87 79 75 75 77 78 77 76 76 76 78 78 78 78 75 74 73 72 72 77 80 79 78 75 72 69 68 67 62 56 53 53 53 56 58 59 58 56 52 44 38 37 40 44 44 38 35 38 39 37 37 37 39 41 40 36 33 33 34 33 29 25 26 37 49 48 41 40 37 36 47
72 82 86 84 84 87 89 90 90 91 92 93 93 91 86 80 77 76 76 76 75 76 76 76 77 78 78 77 75 75 76 75 77 78 79 82 83 78 71 66 65 63 59 55 53 53 54 58 59 58 57 57 55 49 40 37 39 42 43 41 38 37 38 36 34 33 34 36 39 38 34 32 34 34 33 31 26 29 43 45 38 37 33 29 41
80 84 84 82 84 87 89 90 90 90 92 94 91 85 81 80 79 78 77 76 75 76 76 76 77 77 77 76 78 80 80 79 78 76 77 82 85 79 71 66 63 62 59 56 54 53 54 55 54 55 59 60 59 52 42 38 39 39 41 45 44 40 38 35 32 33 33 33 37 40 35 30 31 31 30 31 28 28 36 38 33 31 28 27 38
80 82 84 83 85 88 90 93 93 92 94 93 88 82 79 79 80 79 78 77 76 77 78 77 76 76 77 78 81 81 79 77 77 75 77 83 88 84 77 69 66 65 61 57 54 54 54 54 53 54 58 60 58 51 42 39 39 38 39 44 44 41 41 40 36 34 35 36 39 41 34 27 28 30 27 26 27 29 33 33 28 27 27 31 39
79 81 83 84 86 89 92 95 95 94 94 91 86 83 81 80 80 79 78 79 79 79 79 78 77 78 80 81 82 81 78 77 76 76 78 83 86 83 76 71 69 66 60 55 53 52 52 54 54 54 53 53 52 48 42 39 40 39 38 38 37 37 43 46 41 36 39 41 41 39 33 28 28 27 24 22 20 21 25 24 21 24 30 35 36
79 81 83 84 88 92 94 95 95 94 94 90 85 83 83 82 79 78 79 80 79 78 77 77 78 80 79 79 79 79 79 78 77 76 77 80 82 77 71 70 70 65 58 53 51 51 52 52 53 53 51 48 48 48 45 41 40 39 38 38 36 35 40 46 46 43 42 40 35 31 28 27 27 27 30 35 30 19 15 15 17 25 33 35 33
81 84 86 87 90 92 94 95 95 93 93 91 88 84 83 82 81 79 79 79 78 77 77 77 78 77 76 75 76 76 77 77 76 74 74 76 78 74 67 67 66 61 56 52 50 51 52 53 54 53 51 49 49 49 47 43 41 41 39 38 37 35 36 42 45 40 35 31 29 28 29 29 29 31 36 39 32 22 19 22 26 30 32 31 29
83 87 89 90 91 92 93 94 94 93 92 91 88 85 83 83 82 79 77 77 77 78 78 77 77 75 73 73 73 73 74 74 73 71 69 71 73 70 64 62 62 58 55 53 51 51 51 52 53 52 51 51 50 48 47 44 43 43 41 39 40 38 35 37 37 34 33 33 30 28 30 31 30 29 29 30 28 28 29 30 30 30 30 29 28
84 86 86 86 88 91 93 93 92 92 91 88 86 85 85 83 81 78 76 75 76 78 78 78 76 74 72 71 72 72 72 71 69 67 65 66 67 65 62 60 58 58 57 53 51 51 50 50 50 51 51 51 49 46 45 43 41 42 40 39 41 41 39 38 37 37 40 40 35 31 33 35 33 31 30 31 31 30 28 28 28 27 27 29 29
82 84 83 82 84 87 91 92 92 91 89 89 89 88 86 83 80 78 76 76 78 80 79 77 75 74 71 70 71 70 69 67 65 63 63 63 63 62 62 59 55 56 59 56 51 50 49 48 47 48 48 47 45 44 44 42 40 41 40 39 40 41 41 42 40 38 40 40 37 36 35 33 32 31 28 27 27 26 26 28 29 27 25 26 27
81 82 83 83 84 85 87 90 94 94 93 94 93 90 86 84 81 78 78 80 81 81 78 75 73 71 69 69 69 67 65 64 62 60 62 64 63 61 61 59 56 58 62 60 55 51 49 48 46 46 47 45 42 41 44 44 42 41 41 42 42 41 43 43 37 34 37 38 35 33 30 27 26 26 25 25 25 25 26 26 26 27 27 26 27
83 84 85 85 86 86 87 90 95 96 95 96 97 95 92 89 84 81 81 83 82 80 75 71 69 68 67 67 67 64 62 61 58 57 60 63 63 63 65 65 64 65 66 64 59 54 52 49 47 48 50 48 44 44 45 44 42 41 41 41 40 38 40 38 32 31 35 34 30 29 27 24 24 25 24 25 25 25 25 24 25 26 27 28 30
Wind_Speed
9 13 16 17 18 18 18 20 22 23 23 24 25 25 23 21 19 18 18 19 19 18 18 18 16 16 16 15 14 15 15 15 14 13 13 13 12 11 11 10 9 9 8 8 7 6 5 4 4 4 4 3 3 3 3 2 1 1 1 1 2 3 4 7 10 11 8 6 6 3 1 1 4 4 3 4 3 4 5 5 6 6 8 8 8
10 12 14 17 18 18 20 22 23 24 24 25 25 25 23 21 18 18 17 17 18 17 17 17 16 16 15 15 14 14 15 15 14 14 14 13 12 12 11 10 10 9 8 8 7 6 6 5 5 5 4 4 4 4 3 2 1 1 1 2 2 3 4 6 10 11 8 7 6 3 2 3 4 3 2 3 4 4 5 5 6 7 9 9 8
11 12 13 16 18 20 21 22 23 24 24 25 25 23 22 20 17 15 16 16 17 17 18 18 18 17 16 15 15 14 14 14 14 14 13 12 12 11 11 11 11 10 9 9 7 7 6 6 5 5 5 5 5 4 3 2 1 0 1 3 3 3 4 5 8 9 9 9 6 3 0 1 4 3 1 2 3 3 4 5 6 8 10 9 8
13 14 14 16 19 21 21 21 23 23 23 24 23 22 20 17 15 15 17 19 20 20 21 20 18 17 15 15 14 13 13 13 14 13 12 11 10 10 11 11 11 10 9 8 7 7 6 6 6 6 6 5 5 4 3 2 1 2 3 3 4 5 4 4 7 8 9 9 6 3 2 3 1 2 4 1 3 2 4 5 7 9 10 9 8
13 15 16 16 18 20 22 22 22 23 22 21 22 20 15 13 15 20 25 26 24 23 22 20 19 19 17 16 15 12 12 13 14 13 11 11 11 11 11 10 10 9 9 8 7 7 7 6 6 6 6 5 4 4 3 2 2 3 3 4 5 6 5 4 5 7 8 8 7 5 3 2 3 5 6 0 3 1 3 4 7 9 9 8 8
12 14 15 15 17 20 22 23 22 23 21 18 19 18 17 18 22 27 26 23 22 21 20 18 18 20 19 18 16 12 13 14 13 13 12 12 12 12 10 10 10 9 8 8 7 7 7 7 7 6 6 6 5 4 3 2 2 3 4 4 5 6 5 4 4 5 5 6 7 6 4 4 4 6 6 1 1 1 1 3 6 8 8 7 8
11 12 14 15 17 18 20 22 22 21 18 18 21 21 23 26 28 28 23 19 18 19 19 18 18 19 17 16 14 12 13 12 10 11 13 13 12 11 10 9 9 8 7 7 7 8 8 8 8 7 7 6 5 4 3 3 3 4 5 4 4 5 4 3 3 3 2 4 5 4 3 3 3 5 4 4 2 0 1 3 5 8 8 7 9
11 12 14 15 16 17 19 21 20 19 17 21 25 25 25 25 23 24 22 19 19 20 20 19 19 19 18 16 15 15 16 13 10 10 12 12 11 10 10 9 8 8 7 7 7 8 9 9 8 8 7 6 5 4 4 4 4 4 5 5 5 5 4 3 3 3 3 3 3 2 2 1 1 3 4 5 4 3 1 3 5 8 7 6 9
13 13 14 14 15 16 19 19 19 19 19 22 27 26 23 20 18 19 20 19 19 20 21 19 18 20 22 22 20 17 16 14 12 11 11 11 10 11 10 8 8 7 6 7 8 9 9 10 9 8 8 6 5 4 4 3 4 4 5 5 5 5 5 4 3 4 4 4 3 3 2 2 1 3 4 5 4 3 3 3 6 7 6 6 9
12 13 13 13 15 16 17 17 18 18 20 23 26 23 21 20 19 20 21 20 19 20 22 20 19 20 23 24 20 17 16 14 12 11 11 11 11 11 9 7 9 9 8 7 7 9 9 9 9 8 8 7 5 4 3 3 4 5 6 6 6 6 6 5 5 5 5 6 5 5 5 4 3 4 6 7 5 4 4 5 6 8 6 4 7
12 12 12 14 15 16 17 17 18 18 20 24 23 21 24 24 21 20 20 18 17 19 22 22 20 20 21 21 19 18 18 16 15 13 12 11 12 11 10 10 12 13 12 10 9 9 10 10 9 8 8 6 5 5 4 5 5 6 7 7 7 7 7 7 7 7 7 7 8 7 7 7 6 6 7 7 6 6 5 5 7 8 7 4 5
12 12 12 13 14 15 16 18 19 19 21 24 23 23 26 22 17 17 18 17 16 19 25 26 23 22 20 20 19 19 18 16 16 15 12 12 13 12 11 13 13 13 13 12 11 11 10 10 9 7 6 5 5 5 5 6 6 7 8 8 8 8 7 8 8 8 8 8 9 8 8 8 7 7 7 7 7 7 6 6 7 8 6 5 5
12 11 12 13 12 13 16 18 19 20 23 25 23 23 23 18 17 17 17 18 17 21 26 25 23 23 20 19 20 19 19 18 15 14 14 14 14 14 16 17 17 17 16 13 12 10 8 8 7 6 6 6 7 7 7 8 8 8 9 9 9 9 9 9 9 9 9 8 8 8 8 8 8 8 7 7 7 7 7 6 8 8 5 5 5
11 11 12 12 12 13 16 19 19 20 24 24 21 22 21 20 19 16 15 18 20 22 23 23 24 23 18 18 20 19 20 19 16 16 17 14 13 14 17 20 22 22 21 16 11 9 8 8 7 6 8 9 9 9 9 9 9 9 10 10 10 10 10 10 11 11 10 10 9 9 9 8 8 8 8 8 7 7 7 7 8 7 4 4 5
10 11 13 12 13 14 16 19 20 21 24 24 22 23 22 21 20 17 16 19 22 22 22 24 26 22 17 17 18 18 19 19 17 18 17 15 15 15 16 21 23 21 21 18 14 11 10 10 9 8 9 10 10 10 10 10 10 10 11 11 10 10 10 11 12 12 12 11 10 10 9 9 8 8 8 8 7 7 8 8 9 7 4 3 4
11 12 13 13 14 15 16 19 20 22 24 24 23 25 23 20 19 18 19 22 24 23 23 24 25 21 18 18 19 19 20 21 21 19 17 18 20 19 19 23 23 21 20 18 15 13 12 11 9 10 10 11 10 10 11 11 11 11 11 11 10 10 11 12 12 12 12 12 11 10 10 10 9 8 8 8 7 8 8 8 10 9 6 4 3
12 12 13 13 13 14 17 19 20 22 24 23 23 24 22 19 19 18 21 26 26 26 27 27 25 23 22 23 23 23 23 25 24 20 17 19 21 23 25 25 24 22 20 17 16 15 14 11 10 10 11 11 11 11 11 12 11 11 11 11 11 11 12 12 12 12 12 12 11 10 10 10 9 9 9 8 8 8 8 8 9 9 8 6 4
13 13 13 12 13 14 17 19 20 22 23 23 23 22 21 19 19 20 24 29 28 28 28 26 25 25 25 26 26 26 27 26 22 20 19 20 24 28 28 27 25 23 20 18 18 17 14 11 10 11 11 12 12 12 13 12 11 11 11 11 11 11 13 13 13 12 12 11 11 11 11 11 10 10 10 9 9 9 9 8 9 9 9 8 6
13 13 12 12 12 14 17 19 20 21 22 22 21 21 21 20 21 23 26 28 28 27 25 23 25 25 22 24 26 26 27 23 19 18 19 22 28 30 29 27 26 23 20 19 19 17 13 10 10 11 12 13 13 13 13 12 11 11 11 11 11 12 13 13 12 12 12 12 12 12 12 11 10 10 10 10 10 10 9 9 8 9 10 9 8
12 12 12 12 13 15 19 20 21 22 22 21 21 21 22 22 23 25 26 26 26 26 24 24 26 23 20 22 23 23 23 19 17 18 20 25 30 31 29 28 25 23 21 20 19 16 12 10 11 12 13 14 14 13 13 12 11 11 11 12 12 13 14 14 13 13 12 13 14 13 12 11 10 10 10 10 10 10 9 9 9 9 10 10 10
12 12 12 12 13 16 20 21 21 22 21 22 22 22 22 23 24 25 28 28 27 25 24 26 25 21 20 20 21 22 20 18 19 19 21 28 32 31 30 28 26 24 22 19 17 15 12 12 12 13 14 14 14 13 12 11 11 12 12 13 13 14 15 15 14 14 13 13 14 14 13 12 11 11 11 10 10 10 9 9 10 10 10 10 11
13 12 12 12 13 16 20 21 22 21 21 22 22 21 23 24 23 25 29 30 26 22 23 26 24 21 19 18 19 21 20 20 21 20 23 31 33 32 30 28 26 24 20 17 16 15 13 13 13 14 14 14 14 13 12 11 12 13 13 13 14 15 16 15 15 15 14 13 14 14 13 12 12 12 11 10 9 9 9 9 10 10 10 10 11
13 12 12 12 13 17 20 21 21 21 21 21 21 21 23 24 25 27 28 27 24 21 22 23 23 21 20 20 21 21 20 21 21 22 28 32 33 32 30 28 27 23 19 16 15 15 14 14 14 14 15 14 14 13 12 12 13 14 14 14 15 15 16 16 16 15 14 13 13 13 12 11 11 11 11 11 9 9 9 9 9 9 9 10 11
13 12 12 12 14 17 18 19 21 20 20 21 21 22 23 24 27 27 26 26 24 22 22 21 21 22 21 22 21 21 22 22 20 22 27 29 30 31 29 27 26 22 19 17 15 14 14 14 15 15 15 15 14 13 13 13 14 14 15 16 16 16 15 16 16 14 13 13 13 12 11 11 11 11 11 11 10 10 9 9 8 9 9 9 10
13 14 14 14 15 15 15 17 19 19 20 22 23 24 24 25 26 24 25 25 23 22 22 20 21 23 22 21 20 21 23 22 20 23 27 29 31 29 26 26 25 22 20 18 15 13 14 15 16 16 15 15 14 14 14 15 15 15 16 16 16 16 16 16 15 14 14 13 12 12 12 11 11 11 11 10 10 10 10 9 9 9 9 8 8
14 15 15 14 15 15 15 17 19 19 21 23 23 25 26 25 22 22 24 24 21 21 22 21 20 20 21 21 21 21 22 22 25 29 32 32 31 26 23 24 23 22 21 18 15 14 14 15 15 15 15 15 15 15 15 16 16 16 16 17 17 16 16 16 15 14 13 13 12 12 12 11 11 11 11 9 9 9 10 10 10 10 9 8 8
14 14 14 14 16 16 16 17 18 19 20 23 24 25 25 24 21 21 22 20 19 19 18 18 18 19 21 21 20 21 20 23 30 36 34 31 28 26 25 21 19 20 19 17 15 15 15 15 15 15 15 15 15 15 16 16 16 16 16 17 16 16 16 15 14 14 13 12 12 12 12 12 12 12 12 10 8 8 9 10 10 10 10 9 9
14 14 15 16 16 16 16 16 17 18 20 23 24 24 23 23 22 21 20 19 19 18 18 17 17 18 19 19 21 22 21 26 34 36 32 29 27 26 24 20 18 19 18 16 16 16 15 15 15 14 14 15 16 16 16 16 16 17 17 17 16 16 16 16 15 14 13 12 13 13 13 13 14 14 14 13 12 9 9 10 11 11 11 11 10
16 16 17 16 15 15 14 15 17 20 21 22 22 22 22 22 22 21 20 20 19 20 21 19 18 18 18 19 20 20 22 31 36 34 31 30 27 25 23 20 19 19 17 17 17 16 16 15 14 15 15 15 15 15 15 16 17 17 17 17 16 16 16 16 15 14 13 13 13 13 14 15 15 15 14 15 16 14 13 12 12 12 12 12 11
16 16 17 16 15 15 14 14 17 20 21 21 21 21 22 22 22 21 20 20 20 20 21 21 20 20 19 18 19 21 26 34 36 33 32 32 29 26 23 20 20 19 18 19 18 17 16 16 15 15 15 14 14 15 17 18 17 17 17 17 16 15 15 15 14 14 13 13 13 14 14 14 14 15 14 14 16 17 18 18 17 17 16 14 13
15 15 16 15 14 15 14 15 18 21 21 21 21 21 21 21 22 22 20 20 21 21 21 20 20 21 20 21 24 28 32 35 36 35 34 33 31 29 26 22 21 20 19 19 18 17 16 15 16 16 15 14 17 20 22 21 19 18 17 16 16 15 14 14 14 14 13 13 13 12 10 9 9 9 11 13 16 18 20 20 21 22 21 20 17
15 16 16 15 16 16 16 17 19 21 22 21 22 21 21 20 21 20 20 20 20 20 21 20 20 22 22 23 26 31 33 34 35 35 35 34 31 28 25 22 21 21 21 20 18 17 17 16 17 17 16 18 21 23 23 22 21 19 17 16 15 15 14 14 13 13 13 13 12 11 9 7 7 6 6 8 12 15 17 18 20 22 23 23 21
16 16 16 16 16 16 17 19 20 21 22 22 22 21 20 20 20 20 21 20 19 20 20 20 20 22 23 23 25 29 32 34 34 34 32 29 26 24 23 22 22 22 21 20 18 18 18 17 18 18 18 20 22 22 21 22 22 19 17 16 15 14 14 14 13 13 13 12 11 10 9 8 7 6 5 6 7 9 12 14 15 17 19 20 20
16 16 17 15 14 16 19 20 20 21 23 22 21 20 20 21 22 23 22 21 21 21 21 20 21 22 23 23 24 28 31 32 31 29 25 22 21 22 22 22 22 22 22 21 19 18 19 18 18 19 19 20 22 21 20 21 21 20 18 16 15 15 15 14 13 13 12 11 10 9 9 8 7 6 6 6 6 7 8 10 11 12 14 15 15
15 15 16 14 15 18 20 21 22 23 23 22 22 21 20 21 23 23 22 22 22 21 21 21 22 22 22 22 25 29 31 29 26 23 21 20 20 22 22 22 23 22 22 20 19 19 19 18 19 19 18 19 22 21 19 20 21 20 18 16 15 15 14 14 13 13 12 11 10 9 9 9 9 8 8 8 8 7 8 9 10 10 10 12 13
13 14 15 16 18 20 21 22 23 22 22 22 22 21 21 21 22 21 22 23 22 22 21 22 23 22 22 23 27 31 29 25 22 21 20 19 20 21 22 22 22 22 21 19 18 18 19 19 19 19 19 20 22 21 18 18 20 20 17 14 14 14 14 13 12 11 11 10 9 9 10 10 9 10 11 12 11 9 8 9 9 9 9 9 11
13 15 18 19 20 22 23 23 23 24 25 24 22 21 21 21 21 21 22 24 23 22 22 22 23 23 23 26 31 31 25 22 21 20 20 20 21 22 22 21 22 22 20 18 18 18 19 19 19 19 19 20 21 20 18 18 19 18 14 13 13 13 13 12 11 10 9 9 9 9 9 9 9 10 11 13 13 11 9 9 8 8 8 8 7
16 18 20 21 22 23 25 26 25 25 27 24 22 23 22 20 21 22 23 23 22 21 21 22 23 24 24 26 28 27 23 21 21 20 20 22 22 22 21 21 22 21 20 18 19 19 19 19 19 18 18 19 20 20 18 18 17 15 13 12 12 12 12 11 11 10 10 10 10 11 10 9 9 10 11 12 13 11 9 7 7 7 7 7 7
18 20 20 22 24 24 24 25 24 24 24 24 24 24 22 21 22 22 22 21 21 21 22 22 23 24 24 24 24 23 22 22 21 20 21 23 22 21 21 21 20 19 19 18 19 19 19 18 18 18 18 18 19 19 18 17 16 15 13 11 11 12 11 11 10 10 10 10 10 10 11 10 9 9 10 11 12 11 9 7 6 6 7 7 6
18 20 21 23 25 25 24 24 25 24 24 25 25 24 23 23 23 22 21 21 21 22 22 22 23 24 23 23 23 23 22 21 21 21 20 20 21 21 22 22 19 18 18 18 18 19 19 18 18 18 17 16 17 18 18 17 15 14 12 10 10 11 11 10 10 10 10 9 9 8 8 8 8 8 9 10 11 11 9 7 7 6 7 7 5
18 21 23 23 24 24 23 23 25 25 24 25 27 24 22 22 21 21 21 20 21 22 22 23 23 23 23 23 22 22 22 21 21 22 21 19 19 21 22 22 20 18 17 18 18 19 18 18 17 17 16 15 16 17 17 16 14 13 12 10 9 9 10 9 9 9 9 9 8 8 7 6 6 7 8 9 9 10 9 7 7 7 7 7 5
18 22 22 22 22 23 21 20 23 25 25 27 27 23 21 20 19 20 21 21 21 21 22 22 23 23 23 22 21 21 23 22 22 25 25 21 20 21 22 21 19 18 18 19 19 18 18 17 17 16 15 15 15 15 16 16 13 13 12 8 6 9 10 9 8 8 8 8 8 7 6 6 6 6 7 8 7 8 7 6 6 6 7 7 7
17 19 20 21 21 21 20 20 21 23 25 27 25 22 20 19 19 21 23 23 22 21 21 22 23 23 22 21 21 23 26 26 25 26 26 22 21 23 23 21 19 18 18 19 18 17 17 17 17 16 15 14 15 15 16 15 13 12 11 7 6 10 11 8 6 8 8 7 7 7 6 6 7 6 6 6 6 6 5 5 5 6 7 9 8
16 16 19 21 20 19 19 19 20 22 25 26 24 23 21 20 21 24 25 23 22 22 22 22 22 22 21 21 23 26 28 28 26 25 24 21 21 22 22 21 20 19 18 18 18 17 17 17 16 16 15 15 15 15 15 15 12 11 10 8 8 10 9 6 6 7 7 7 7 7 6 6 6 6 6 7 6 5 4 4 4 6 8 8 7
16 17 18 20 21 21 19 19 20 23 25 24 22 22 21 20 22 24 25 24 23 22 22 22 21 20 20 21 23 23 23 24 23 22 21 20 20 21 22 22 22 20 18 18 18 18 18 17 16 16 16 16 15 14 14 15 13 11 11 9 9 9 9 7 6 6 6 7 8 6 6 6 6 6 7 7 5 5 5 5 6 7 7 6 6
16 17 19 20 21 22 20 20 21 23 25 23 19 17 19 21 22 22 23 23 23 22 22 21 20 20 21 22 22 21 20 20 20 19 18 18 19 20 22 23 23 21 18 18 18 18 18 17 16 16 16 16 15 15 14 15 14 12 11 11 9 9 9 8 7 7 8 8 7 6 5 5 4 4 4 3 2 3 6 7 7 7 6 5 5
16 17 19 19 19 19 20 20 21 21 21 20 15 13 17 21 22 21 22 22 23 23 22 21 20 20 21 21 21 21 21 20 19 18 16 17 18 19 21 23 23 21 19 19 19 18 18 17 17 17 16 16 16 15 15 15 14 13 12 12 11 10 9 9 8 8 8 7 6 5 5 5 4 3 3 2 2 3 4 4 4 4 4 4 5
17 18 19 18 18 18 19 20 21 19 18 18 16 16 19 21 22 22 22 22 22 23 22 21 21 21 20 20 21 22 21 20 19 17 17 17 18 19 21 23 23 21 20 19 19 19 18 17 17 17 17 17 16 15 15 16 15 14 13 13 12 11 10 9 8 8 8 7 6 5 4 4 3 2 2 2 1 1 0 1 2 3 2 3 5
17 18 19 18 18 19 20 20 19 19 19 18 17 19 21 22 22 23 22 22 22 22 21 21 21 20 19 19 20 21 21 19 18 17 17 17 17 18 20 21 21 20 19 19 19 18 17 17 17 16 17 17 16 15 16 17 17 16 15 14 13 13 11 9 8 9 8 7 6 6 5 5 4 3 3 2 2 1 1 1 2 2 3 3 4
16 17 17 17 18 20 21 20 18 19 21 19 16 19 22 22 23 24 24 23 22 21 20 21 21 20 19 20 21 21 20 19 20 19 17 16 17 19 20 20 20 20 20 19 18 17 17 17 15 15 15 15 15 16 18 19 19 18 16 14 13 13 11 8 8 9 7 5 5 5 5 4 4 3 2 2 1 1 0 1 1 2 3 3 4
15 15 16 16 17 18 19 19 18 20 21 19 17 18 21 22 24 24 23 24 24 21 21 22 21 21 21 22 22 21 20 21 21 18 17 17 17 17 18 18 20 21 21 20 19 17 17 17 15 15 16 14 12 14 18 19 19 18 16 14 12 12 11 9 8 8 6 5 5 5 4 4 4 3 2 1 1 1 0 1 1 1 2 2 2
Wind_Direction
161 163 168 173 177 175 172 176 181 185 189 190 193 196 194 189 184 180 179 180 180 180 185 188 186 186 190 190 187 190 187 180 182 186 186 185 184 187 190 189 188 187 191 197 196 194 193 193 198 199 187 173 163 153 145 140 153 229 273 331 344 344 1 14 4 343 321 325 331 298 193 164 177 159 77 38 15 22 26 15 6 356 351 349 345
162 161 163 171 174 173 175 177 183 188 190 192 194 196 194 190 185 177 172 178 183 183 184 189 190 187 186 187 187 188 185 182 185 187 185 184 183 189 192 188 185 187 193 198 199 198 196 196 200 192 179 171 161 155 148 149 185 245 307 338 355 359 16 26 10 354 338 338 325 268 166 140 168 172 112 46 14 21 29 16 7 359 356 354 349
167 164 164 173 173 174 179 182 188 192 192 194 196 194 191 189 181 167 166 178 187 188 188 189 190 187 185 186 187 185 184 185 186 186 186 185 185 189 189 184 185 188 193 197 199 199 198 196 191 178 171 167 157 153 146 143 197 345 11 355 350 2 23 36 25 11 350 336 309 265 204 184 178 160 135 24 40 44 38 22 9 2 3 4 3
174 171 171 178 178 179 184 189 194 196 195 196 195 192 189 180 163 159 172 185 193 194 192 189 187 185 184 186 186 184 184 184 183 184 185 187 189 190 186 184 186 189 193 196 195 192 193 193 181 169 166 161 152 149 139 131 97 45 38 15 357 354 9 37 42 25 2 353 331 302 288 262 156 56 340 10 108 45 32 31 14 7 8 11 13
182 177 176 181 185 186 191 195 196 198 198 194 191 187 173 151 160 180 186 189 193 193 189 186 182 180 179 180 181 179 180 183 182 179 181 187 188 186 186 186 187 190 192 190 186 182 182 183 174 166 158 148 143 140 125 107 75 49 31 23 15 5 358 14 45 40 25 19 3 344 304 295 22 352 327 185 144 5 21 27 15 12 10 13 16
189 182 179 181 188 192 196 198 198 199 196 187 180 168 152 161 184 193 190 189 190 189 187 180 175 176 174 172 173 177 182 186 184 178 179 184 183 181 184 187 187 190 191 182 175 172 168 167 164 156 148 138 129 124 110 88 60 42 26 18 24 19 360 356 28 41 46 40 28 24 10 352 350 326 317 307 186 132 53 11 17 17 14 18 18
188 185 183 183 188 193 200 202 201 200 188 173 167 160 168 184 188 185 183 184 183 185 186 177 171 171 167 166 171 180 186 186 182 178 178 179 178 176 182 185 183 185 185 174 166 161 155 151 149 141 132 123 114 109 95 74 53 46 41 28 25 25 12 10 19 20 53 54 39 34 21 2 343 334 336 328 310 162 82 43 36 19 18 26 18
188 187 188 187 186 192 202 201 201 198 178 165 166 171 183 189 182 179 179 177 177 183 185 180 176 171 165 168 175 183 186 184 181 178 178 180 175 173 180 180 176 179 175 165 156 153 147 139 136 130 122 111 101 94 81 71 62 53 51 45 43 43 36 41 42 24 29 42 36 23 7 356 1 10 358 332 318 313 4 61 29 10 17 24 15
193 193 191 188 185 191 199 199 201 195 174 166 170 175 184 184 180 181 177 173 177 182 182 181 179 173 172 178 183 187 189 186 182 178 180 183 176 173 175 167 164 166 157 153 150 144 140 134 129 123 114 108 101 94 86 84 78 67 61 58 61 65 61 61 66 53 41 39 31 22 11 357 49 52 15 355 343 335 350 4 355 358 7 13 13
197 198 190 184 184 189 195 197 199 187 170 170 170 172 184 186 184 184 180 176 176 177 181 182 176 174 179 183 183 184 187 184 177 179 185 183 174 168 158 148 161 163 149 147 142 134 134 128 122 117 108 104 104 103 101 94 87 82 79 76 76 79 78 73 69 68 62 52 39 34 35 27 31 38 19 10 5 357 347 336 347 355 350 3 17
197 196 187 180 181 187 193 195 193 177 167 171 167 175 193 194 186 185 181 176 170 172 181 185 181 180 183 183 180 178 182 179 171 178 187 180 170 159 146 155 170 168 157 149 139 134 135 127 119 113 103 103 111 114 109 100 95 93 88 87 87 85 85 82 76 75 72 63 54 50 49 42 36 31 19 11 4 359 345 334 349 353 341 352 19
194 191 184 178 178 185 193 194 188 175 171 172 169 183 198 193 179 177 177 174 169 173 182 185 184 187 182 178 182 180 179 180 176 180 186 180 169 156 152 163 164 154 149 149 148 146 139 126 113 104 104 114 121 119 117 113 108 104 99 95 93 91 89 88 83 77 75 71 64 61 58 55 48 37 23 14 6 357 348 339 344 346 340 350 5
192 188 182 179 178 184 191 192 185 175 175 175 173 186 197 188 174 172 171 173 172 178 185 185 185 189 181 176 183 182 180 185 184 182 184 182 174 163 160 160 153 148 148 148 148 146 134 120 110 106 116 122 122 122 122 119 113 108 107 104 99 95 91 89 85 78 76 75 73 69 65 61 52 40 30 23 14 2 356 348 342 342 338 346 355
188 185 181 180 180 182 187 191 186 178 178 178 178 188 195 190 181 175 171 173 172 173 177 181 188 190 183 184 188 183 181 182 184 187 184 181 178 168 161 159 157 158 155 148 145 144 130 118 116 118 122 123 126 127 122 117 114 112 111 106 100 96 93 90 86 82 79 77 77 76 68 63 55 45 38 32 26 17 9 356 345 342 341 353 3
184 185 184 181 180 178 183 189 188 184 182 181 182 189 194 189 180 176 175 168 164 162 163 177 189 189 184 189 188 186 187 185 190 197 189 183 182 167 158 162 163 164 160 152 153 152 130 117 120 124 126 126 127 126 120 117 117 114 111 105 100 98 95 92 88 85 83 79 78 77 72 65 57 49 45 39 32 25 17 3 353 351 353 10 16
183 185 185 182 180 177 179 185 186 187 186 185 188 190 190 185 175 175 174 163 159 159 161 179 192 190 186 186 183 187 191 190 194 198 192 189 186 170 164 167 165 166 164 154 154 148 127 118 123 126 129 129 127 124 122 122 120 114 109 104 101 99 96 93 90 86 84 80 79 78 75 69 60 55 50 43 38 32 25 16 8 2 353 356 8
181 185 185 182 180 176 179 185 187 187 186 190 193 188 184 180 170 169 166 161 163 163 165 180 189 185 183 182 182 186 189 191 193 190 186 187 182 175 173 171 166 166 161 150 147 139 125 122 127 129 132 130 128 127 124 124 119 111 108 105 103 101 96 92 89 87 84 82 81 79 77 73 66 62 55 49 45 39 33 28 22 12 359 355 356
180 184 183 180 180 176 179 186 189 188 187 191 191 183 177 172 167 166 161 160 166 166 168 180 180 175 178 180 181 184 187 193 191 181 179 179 175 174 174 170 166 163 155 147 145 136 126 127 131 133 135 133 131 129 125 123 117 109 108 105 103 102 97 91 88 87 86 85 85 82 80 77 71 65 60 54 49 44 40 35 30 23 13 9 357
178 181 179 178 178 177 181 186 188 188 187 187 184 175 169 165 167 168 161 161 167 166 169 179 175 171 174 176 175 177 184 189 184 177 177 171 168 170 171 167 162 156 149 147 144 136 129 132 136 137 137 135 132 129 126 122 116 111 109 105 104 103 98 95 91 89 89 89 88 85 82 79 74 70 65 60 53 46 42 35 30 27 19 13 2
174 175 176 177 174 178 184 186 185 184 183 181 174 169 165 163 165 165 159 160 163 164 167 172 172 172 171 169 169 174 182 184 177 176 172 166 167 170 169 164 157 151 148 146 142 136 135 138 140 140 139 136 133 129 127 124 116 111 109 107 106 103 100 98 95 94 93 91 88 85 82 78 75 72 68 62 56 47 41 34 25 23 21 14 9
170 172 174 174 174 178 181 181 181 180 178 173 166 162 161 161 163 162 159 159 162 166 166 161 162 169 169 164 162 171 180 179 175 174 167 166 170 170 167 161 154 151 147 142 139 137 139 141 141 142 140 136 134 131 128 124 117 112 110 109 107 105 103 102 101 99 95 92 88 85 80 75 72 70 67 62 56 47 40 35 26 22 23 19 13
168 171 172 171 175 177 176 176 176 172 169 165 161 158 158 158 160 159 158 160 163 163 155 151 158 165 164 158 153 159 169 170 170 169 163 166 169 167 163 157 153 149 143 139 139 138 141 142 142 143 140 136 134 131 127 124 120 116 113 111 110 108 107 106 104 100 96 92 89 84 79 73 68 66 62 58 52 46 40 35 31 27 24 23 18
166 168 171 172 174 173 173 173 170 165 162 161 160 158 156 156 156 155 154 155 156 152 144 149 163 166 165 167 159 155 161 162 162 162 162 163 163 162 160 155 151 146 139 139 139 139 142 144 144 143 139 138 134 130 127 124 122 120 117 114 113 111 110 108 104 101 97 93 88 82 76 70 67 64 61 56 49 43 40 35 32 31 27 25 23
165 168 170 170 169 168 170 169 164 160 159 160 159 154 149 151 150 148 148 148 149 152 151 155 164 166 168 170 161 156 161 159 155 156 156 155 157 158 157 153 149 142 137 139 137 138 143 145 146 144 140 139 135 131 128 125 123 123 119 117 115 112 109 106 103 100 97 91 86 81 75 70 68 65 60 56 50 42 39 33 29 29 29 28 27
167 168 166 166 166 166 169 168 164 160 159 159 155 148 144 145 144 142 144 142 142 151 157 158 162 165 165 161 155 156 158 153 146 149 153 155 158 158 155 152 147 141 139 138 136 140 146 147 147 145 142 139 134 131 129 126 125 123 119 117 114 112 108 105 102 99 94 90 85 80 75 71 68 65 60 54 47 40 36 33 28 26 26 27 29
168 166 164 165 166 168 169 167 165 162 159 156 150 145 142 139 138 141 142 139 141 151 158 160 161 160 159 156 152 152 151 147 148 154 159 160 159 155 152 150 146 142 140 138 140 147 149 147 145 142 140 136 132 131 130 128 126 122 119 116 113 111 108 105 102 97 94 90 85 81 76 71 65 60 55 47 42 38 34 30 26 23 23 25 30
165 163 165 165 166 168 166 163 164 160 154 150 146 142 139 136 137 141 140 140 146 153 154 156 156 155 157 156 151 148 147 148 154 158 160 160 157 155 152 147 143 142 140 139 145 149 146 143 140 137 136 133 131 131 131 129 126 123 120 117 114 112 108 104 102 99 96 92 86 82 76 70 64 59 52 41 37 36 34 32 28 24 22 27 33
162 161 166 166 164 165 163 160 159 152 144 142 141 136 134 137 140 140 141 144 148 151 149 148 150 153 155 154 150 148 147 151 155 157 157 156 156 155 153 147 144 142 140 142 146 145 141 139 136 134 133 132 132 132 132 130 127 124 121 117 115 113 110 107 104 100 97 93 89 85 79 74 70 65 57 48 45 44 39 34 30 27 27 31 37
163 163 167 168 165 163 161 158 154 147 140 136 135 133 135 140 141 141 146 150 153 155 150 144 146 150 152 150 147 143 145 151 155 156 156 156 156 155 152 148 146 143 142 146 147 141 137 136 134 133 132 133 133 133 134 133 128 125 122 119 118 115 112 110 106 103 100 95 93 90 85 81 75 68 59 51 50 55 57 49 37 33 33 34 38
165 164 166 167 166 162 157 155 151 145 139 134 135 137 139 142 144 145 149 154 156 156 149 143 146 151 149 147 145 143 146 153 157 158 159 159 158 157 153 148 146 146 146 148 146 140 138 136 135 135 134 134 135 136 138 135 130 127 124 121 120 117 114 112 108 105 103 100 100 98 92 83 75 68 60 51 51 57 60 58 53 49 47 44 40
162 162 163 162 162 158 153 153 150 143 140 140 141 142 140 140 142 145 150 156 155 152 148 145 144 146 146 146 148 150 151 155 158 160 161 162 161 160 155 147 145 147 147 147 143 139 138 137 137 137 134 134 137 140 140 134 129 127 125 123 122 119 115 113 108 107 106 106 107 105 98 88 79 74 63 52 52 56 58 57 55 55 54 51 47
160 160 162 160 157 155 153 152 148 144 143 143 142 142 140 138 140 145 151 154 150 147 148 145 141 143 146 147 150 153 153 154 156 158 161 163 162 158 153 148 147 149 148 145 142 139 138 138 136 134 131 133 138 141 139 133 128 126 125 124 122 119 116 112 109 108 108 109 108 105 101 96 92 93 84 62 53 52 53 52 51 51 53 53 53
160 159 160 160 157 154 152 150 147 145 145 143 141 142 141 139 140 145 150 150 147 148 149 145 143 147 148 145 147 152 153 154 156 158 159 158 155 151 150 150 149 149 148 146 142 138 137 137 135 131 129 133 138 140 138 134 129 125 125 122 119 117 114 110 109 109 109 110 110 109 105 98 88 86 88 82 68 58 54 51 48 47 48 48 51
161 158 157 157 154 150 147 144 142 141 142 143 142 141 142 144 147 150 152 153 153 153 151 147 147 150 148 143 144 149 153 155 156 157 153 148 147 149 150 150 148 147 149 147 141 138 138 136 133 130 130 134 139 140 138 136 131 126 124 120 116 114 111 107 107 107 107 108 108 109 106 96 82 77 84 86 76 72 71 64 58 55 51 47 45
162 155 152 151 149 146 142 139 138 138 139 142 141 140 144 151 155 154 153 155 154 152 150 149 150 152 149 143 144 150 154 154 153 152 147 144 146 149 150 149 148 148 148 145 141 138 137 135 134 133 132 137 142 141 139 138 133 126 121 117 114 113 110 108 106 104 104 106 105 104 102 93 78 76 96 104 87 74 75 71 67 63 59 56 52
163 156 150 149 146 142 137 136 138 140 141 140 141 144 149 153 154 152 152 153 152 150 151 152 152 154 151 148 151 153 152 151 149 148 146 145 147 150 151 151 149 148 146 144 140 138 138 137 137 136 135 139 145 145 142 141 134 124 118 117 117 114 112 111 109 107 106 105 103 101 98 96 84 76 90 100 92 79 73 67 65 62 61 62 55
158 157 148 143 138 134 135 137 139 144 146 143 144 149 153 153 153 152 153 154 153 152 154 154 154 155 154 153 155 153 149 148 149 149 148 149 151 152 153 152 150 149 147 143 140 140 141 140 139 139 139 142 147 149 147 144 136 124 120 124 122 118 117 114 111 111 107 103 107 106 99 95 88 81 87 92 87 80 71 67 67 61 59 61 52
147 148 143 136 132 134 141 142 140 144 148 147 148 152 154 155 158 159 157 158 158 157 157 156 154 153 153 153 154 152 148 150 152 152 151 153 154 154 154 154 152 149 145 143 142 142 142 142 142 142 142 144 149 151 150 148 141 130 128 132 128 123 121 119 116 116 109 103 109 113 108 103 93 85 85 88 86 78 67 64 66 61 57 55 44
144 144 141 137 135 137 142 143 141 146 151 151 151 152 154 159 166 166 163 162 164 163 161 159 155 154 155 155 154 153 152 155 159 157 152 152 154 154 154 153 151 146 143 143 144 144 144 144 144 144 143 144 148 151 152 152 149 141 136 137 135 131 129 128 127 124 118 111 108 106 104 103 96 84 78 81 86 82 69 55 54 56 53 44 31
149 142 138 138 139 139 143 147 151 154 156 156 154 153 158 165 170 169 167 169 169 165 162 159 157 159 161 159 156 155 156 158 158 153 147 148 150 150 152 153 150 145 144 144 145 145 145 145 145 145 145 145 148 152 154 155 155 151 144 140 141 141 139 138 136 132 131 128 118 107 101 98 93 84 75 72 76 80 73 52 44 52 43 27 16
142 132 132 138 142 145 149 153 158 159 159 158 156 156 160 166 168 169 170 170 167 163 161 159 159 162 162 158 155 155 155 153 151 149 146 144 144 146 151 155 153 148 145 146 147 148 147 147 147 148 147 147 150 155 158 158 159 159 151 142 145 149 147 146 145 141 138 136 129 119 110 101 95 85 75 69 66 70 73 59 47 51 40 26 20
125 127 133 139 144 150 152 154 158 160 160 160 158 159 162 165 167 169 169 166 164 162 161 160 160 160 159 156 154 154 153 152 154 155 152 145 141 147 153 156 154 149 147 147 149 150 149 149 150 151 150 149 152 158 162 163 163 164 158 147 148 157 153 147 147 144 136 132 128 122 115 106 97 85 75 69 60 59 64 58 45 41 33 33 31
132 134 137 139 144 149 150 152 157 160 161 162 161 161 165 170 170 168 165 162 162 160 159 160 159 156 153 150 152 156 160 161 161 159 154 146 143 148 153 156 156 152 148 150 152 152 151 151 153 156 155 153 155 163 168 169 168 169 168 160 153 156 153 145 146 146 137 131 128 123 116 102 89 80 72 66 59 56 52 37 31 35 35 34 26
142 140 140 140 142 145 147 150 156 160 163 165 165 165 169 174 171 164 160 159 160 159 158 159 157 150 146 148 155 161 164 165 162 158 152 147 147 151 155 159 161 158 154 154 155 156 155 156 157 159 159 159 160 167 173 174 172 172 173 170 163 160 154 142 140 141 136 135 136 130 118 101 89 80 72 62 55 53 48 26 25 41 41 29 12
142 143 146 144 142 143 145 149 157 163 165 167 169 171 171 169 163 160 159 158 159 159 160 160 154 147 145 149 155 158 159 159 158 156 152 149 152 157 161 163 163 162 160 159 160 161 161 162 162 160 161 162 162 165 173 177 177 174 171 170 167 164 158 146 137 138 139 140 138 127 109 98 92 79 67 56 38 32 42 42 45 50 43 19 0
140 139 141 141 142 143 146 150 159 167 169 171 174 172 165 160 158 161 162 161 159 160 161 159 152 148 150 152 153 153 153 153 154 155 154 154 156 160 164 166 167 168 167 166 166 168 167 168 167 165 163 164 163 164 170 176 179 177 175 173 168 163 161 154 142 139 140 137 133 124 106 98 101 92 80 78 57 40 41 37 39 45 35 14 9
139 137 136 137 140 143 146 152 159 165 171 176 177 166 157 158 161 165 166 163 161 162 161 155 148 148 152 155 155 154 154 154 155 158 159 160 161 164 167 170 172 172 172 171 171 173 173 172 171 169 166 166 167 168 169 174 178 178 177 177 173 166 162 159 154 151 149 145 138 127 111 105 111 109 111 126 100 50 31 17 18 30 26 16 16
141 143 144 143 145 148 151 156 161 166 170 172 171 164 160 162 166 167 168 168 167 164 158 151 148 150 153 155 155 155 155 156 158 161 163 165 168 169 172 175 176 176 175 175 175 176 176 174 173 171 169 169 172 174 173 175 177 176 175 176 176 174 173 173 169 163 158 158 160 151 138 138 144 144 157 162 142 108 61 20 18 15 8 358 357
147 152 155 155 155 157 157 159 164 168 167 166 166 164 164 166 169 169 170 171 167 160 152 149 150 153 153 153 155 157 158 158 160 164 167 170 172 173 174 176 179 181 180 178 177 177 177 175 173 172 172 174 176 178 178 178 178 177 175 175 176 177 181 184 175 165 160 165 177 181 177 176 177 177 179 171 147 142 155 74 41 14 4 3 358
153 155 158 159 159 159 161 161 161 163 163 163 163 162 163 167 171 171 172 169 160 152 150 154 158 160 158 156 158 160 162 164 167 169 168 165 167 171 173 175 180 183 182 180 179 177 175 174 171 170 174 178 180 182 183 180 180 180 178 177 178 179 180 179 170 168 173 185 190 186 180 180 181 171 159 149 126 87 4 20 35 18 16 14 9
155 154 156 158 156 157 159 160 158 160 164 166 166 162 162 166 170 172 171 163 154 151 157 163 167 167 163 160 161 163 166 170 172 170 164 159 159 163 167 173 181 183 181 180 180 175 172 172 170 169 175 179 180 184 187 185 183 184 183 181 181 182 183 179 173 178 191 194 188 186 180 177 181 172 157 166 178 171 279 322 346 12 20 13 6